When you browse on this site, cookies collect data to enhance your experience and personalize the content and advertising you see.
Visit our Privacy Policy to learn more. By continuing to use the site, you agree to this use of cookies and data.
  • In United Kingdom
  • List of Countries
  • For 7 days
  • Water Temperature
  • Satellite Maps
  • Weather Map
  • Weather Widgets
  • user-avatar
    Login

    Hourly Weather Soma Bey

    Today, 21 May, Tuesday

    Time Temperature Precipitation Wind Pressure Humidity
    00:00 +30°C° 0 mm 2 mps 747 mmHg 22%
    01:00 +29°C° 0 mm 2 mps 747 mmHg 23%
    02:00 +29°C° 0 mm 3 mps 747 mmHg 25%
    03:00 +29°C° 0 mm 3 mps 747 mmHg 27%
    04:00 +28°C° 0 mm 3 mps 747 mmHg 30%
    05:00 +28°C° 0 mm 3 mps 747 mmHg 32%
    06:00 +30°C° 0 mm 4 mps 748 mmHg 27%
    07:00 +33°C° 0 mm 5 mps 748 mmHg 23%
    08:00 +35°C° 0 mm 5 mps 748 mmHg 20%
    09:00 +36°C° 0 mm 6 mps 748 mmHg 18%
    10:00 +38°C° 0 mm 6 mps 749 mmHg 17%
    11:00 +39°C° 0 mm 6 mps 749 mmHg 16%
    12:00 +39°C° 0 mm 6 mps 748 mmHg 16%
    13:00 +39°C° 0 mm 6 mps 748 mmHg 15%
    14:00 +40°C° 0 mm 5 mps 748 mmHg 15%
    15:00 +38°C° 0 mm 4 mps 748 mmHg 15%
    16:00 +38°C° 0 mm 3 mps 747 mmHg 16%
    17:00 +37°C° 0 mm 2 mps 747 mmHg 16%
    18:00 +36°C° 0 mm 2 mps 747 mmHg 17%
    19:00 +35°C° 0 mm 2 mps 747 mmHg 18%
    20:00 +33°C° 0 mm 1 mps 748 mmHg 18%
    21:00 +33°C° 0 mm 1 mps 748 mmHg 18%
    22:00 +32°C° 0 mm 1 mps 748 mmHg 17%
    23:00 +32°C° 0 mm 1 mps 748 mmHg 17%

    Tomorrow, 22 May, Wednesday

    Time Temperature Precipitation Wind Pressure Humidity
    00:00 +31°C° 0 mm 1 mps 748 mmHg 17%
    01:00 +30°C° 0 mm 1 mps 748 mmHg 18%
    02:00 +30°C° 0 mm 1 mps 748 mmHg 18%
    03:00 +30°C° 0 mm 1 mps 748 mmHg 18%
    04:00 +30°C° 0 mm 2 mps 748 mmHg 18%
    05:00 +29°C° 0 mm 2 mps 748 mmHg 17%
    06:00 +33°C° 0 mm 3 mps 748 mmHg 16%
    07:00 +35°C° 0 mm 5 mps 749 mmHg 14%
    08:00 +39°C° 0 mm 6 mps 749 mmHg 12%
    09:00 +40°C° 0 mm 6 mps 749 mmHg 13%
    10:00 +41°C° 0 mm 6 mps 749 mmHg 13%
    11:00 +41°C° 0 mm 7 mps 749 mmHg 13%
    12:00 +42°C° 0 mm 6 mps 748 mmHg 13%
    13:00 +42°C° 0 mm 6 mps 748 mmHg 12%
    14:00 +43°C° 0 mm 5 mps 748 mmHg 11%
    15:00 +42°C° 0 mm 4 mps 747 mmHg 11%
    16:00 +42°C° 0 mm 4 mps 747 mmHg 11%
    17:00 +42°C° 0 mm 3 mps 746 mmHg 11%
    18:00 +40°C° 0 mm 3 mps 747 mmHg 11%
    19:00 +38°C° 0 mm 2 mps 747 mmHg 11%
    20:00 +37°C° 0 mm 2 mps 747 mmHg 12%
    21:00 +37°C° 0 mm 2 mps 747 mmHg 12%
    22:00 +36°C° 0 mm 2 mps 747 mmHg 11%
    23:00 +36°C° 0 mm 2 mps 747 mmHg 11%

    Day after tomorrow, 23 May, Thursday

    Time Temperature Precipitation Wind Pressure Humidity
    00:00 +35°C° 0 mm 2 mps 747 mmHg 12%
    01:00 +35°C° 0 mm 3 mps 747 mmHg 12%
    02:00 +34°C° 0 mm 3 mps 746 mmHg 13%
    03:00 +34°C° 0 mm 3 mps 746 mmHg 13%
    04:00 +34°C° 0 mm 4 mps 746 mmHg 14%
    05:00 +34°C° 0 mm 4 mps 746 mmHg 14%
    06:00 +36°C° 0 mm 5 mps 747 mmHg 14%
    07:00 +37°C° 0 mm 5 mps 747 mmHg 14%
    08:00 +40°C° 0 mm 6 mps 748 mmHg 14%
    09:00 +40°C° 0 mm 6 mps 748 mmHg 13%
    10:00 +41°C° 0 mm 5 mps 747 mmHg 13%
    11:00 +42°C° 0 mm 5 mps 747 mmHg 13%
    12:00 +43°C° 0 mm 5 mps 747 mmHg 12%
    13:00 +43°C° 0 mm 4 mps 746 mmHg 11%
    14:00 +44°C° 0 mm 4 mps 746 mmHg 10%
    15:00 +44°C° 0 mm 4 mps 745 mmHg 10%
    16:00 +43°C° 0 mm 3 mps 745 mmHg 10%
    17:00 +43°C° 0 mm 3 mps 745 mmHg 10%
    18:00 +41°C° 0 mm 2 mps 745 mmHg 11%
    19:00 +39°C° 0 mm 1 mps 745 mmHg 12%
    20:00 +36°C° 0 mm 1 mps 746 mmHg 13%
    21:00 +34°C° 0 mm 0 mps 746 mmHg 13%
    22:00 +33°C° 0 mm 0 mps 746 mmHg 13%
    23:00 +33°C° 0 mm 0 mps 746 mmHg 13%

    24 May, Friday

    Time Temperature Precipitation Wind Pressure Humidity
    00:00 +32°C° 0 mm 0 mps 746 mmHg 13%
    01:00 +34°C° 0 mm 1 mps 745 mmHg 14%
    02:00 +33°C° 0 mm 1 mps 745 mmHg 14%
    03:00 +33°C° 0 mm 1 mps 745 mmHg 15%
    04:00 +32°C° 0 mm 1 mps 745 mmHg 16%
    05:00 +32°C° 0 mm 1 mps 745 mmHg 17%
    06:00 +34°C° 0 mm 1 mps 746 mmHg 15%
    07:00 +37°C° 0 mm 1 mps 746 mmHg 14%
    08:00 +40°C° 0 mm 1 mps 747 mmHg 12%
    09:00 +42°C° 0 mm 2 mps 747 mmHg 11%
    10:00 +44°C° 0 mm 3 mps 747 mmHg 10%
    11:00 +47°C° 0 mm 4 mps 747 mmHg 10%
    12:00 +46°C° 0 mm 5 mps 746 mmHg 10%
    13:00 +46°C° 0 mm 6 mps 746 mmHg 11%
    14:00 +46°C° 0 mm 6 mps 745 mmHg 12%
    15:00 +45°C° 0 mm 5 mps 745 mmHg 14%
    16:00 +43°C° 0 mm 4 mps 745 mmHg 16%
    17:00 +42°C° 0 mm 3 mps 745 mmHg 18%
    18:00 +39°C° 0 mm 2 mps 745 mmHg 20%
    19:00 +38°C° 0 mm 2 mps 746 mmHg 23%
    20:00 +36°C° 0 mm 1 mps 746 mmHg 25%
    21:00 +36°C° 0 mm 1 mps 746 mmHg 24%
    22:00 +35°C° 0 mm 1 mps 746 mmHg 23%
    23:00 +35°C° 0 mm 1 mps 746 mmHg 22%

    25 May, Saturday

    Time Temperature Precipitation Wind Pressure Humidity
    00:00 +34°C° 0 mm 1 mps 746 mmHg 24%
    01:00 +34°C° 0 mm 2 mps 746 mmHg 26%
    02:00 +34°C° 0 mm 2 mps 745 mmHg 28%
    03:00 +32°C° 0 mm 2 mps 746 mmHg 33%
    04:00 +31°C° 0 mm 2 mps 746 mmHg 37%
    05:00 +30°C° 0 mm 2 mps 746 mmHg 41%
    06:00 +33°C° 0 mm 1 mps 747 mmHg 34%
    07:00 +35°C° 0 mm 1 mps 747 mmHg 28%
    08:00 +39°C° 0 mm 1 mps 748 mmHg 21%
    09:00 +39°C° 0 mm 2 mps 748 mmHg 23%
    10:00 +39°C° 0 mm 3 mps 747 mmHg 26%
    11:00 +41°C° 0 mm 4 mps 747 mmHg 29%
    12:00 +40°C° 0 mm 4 mps 747 mmHg 31%
    13:00 +39°C° 0 mm 3 mps 746 mmHg 33%
    14:00 +39°C° 0 mm 3 mps 746 mmHg 35%
    15:00 +38°C° 0 mm 3 mps 746 mmHg 35%
    16:00 +38°C° 0 mm 2 mps 745 mmHg 34%
    17:00 +38°C° 0 mm 2 mps 745 mmHg 33%
    18:00 +36°C° 0 mm 1 mps 745 mmHg 35%
    19:00 +36°C° 0 mm 1 mps 745 mmHg 36%
    20:00 +33°C° 0 mm 0 mps 746 mmHg 37%
    21:00 +34°C° 0 mm 1 mps 746 mmHg 40%
    22:00 +33°C° 0 mm 1 mps 746 mmHg 44%
    23:00 +33°C° 0 mm 1 mps 746 mmHg 47%

    26 May, Sunday

    Time Temperature Precipitation Wind Pressure Humidity
    00:00 +32°C° 0 mm 2 mps 746 mmHg 45%
    01:00 +32°C° 0 mm 2 mps 746 mmHg 43%
    02:00 +33°C° 0 mm 3 mps 745 mmHg 42%
    03:00 +33°C° 0 mm 3 mps 745 mmHg 41%
    04:00 +32°C° 0 mm 2 mps 746 mmHg 40%
    05:00 +31°C° 0 mm 2 mps 746 mmHg 39%
    06:00 +33°C° 0 mm 3 mps 746 mmHg 35%
    07:00 +34°C° 0 mm 3 mps 746 mmHg 32%
    08:00 +36°C° 0 mm 3 mps 746 mmHg 29%
    09:00 +37°C° 0 mm 3 mps 746 mmHg 25%
    10:00 +39°C° 0 mm 3 mps 746 mmHg 22%
    11:00 +42°C° 0 mm 4 mps 746 mmHg 18%
    12:00 +42°C° 0 mm 4 mps 745 mmHg 18%
    13:00 +42°C° 0 mm 4 mps 745 mmHg 19%
    14:00 +43°C° 0 mm 4 mps 744 mmHg 19%
    15:00 +42°C° 0 mm 3 mps 744 mmHg 20%
    16:00 +40°C° 0 mm 3 mps 744 mmHg 21%
    17:00 +39°C° 0 mm 2 mps 744 mmHg 22%
    18:00 +37°C° 0 mm 1 mps 744 mmHg 23%
    19:00 +36°C° 0 mm 1 mps 744 mmHg 25%
    20:00 +34°C° 0 mm 0 mps 744 mmHg 26%
    21:00 +35°C° 0 mm 1 mps 744 mmHg 27%
    22:00 +36°C° 0 mm 2 mps 744 mmHg 28%
    23:00 +35°C° 0 mm 2 mps 745 mmHg 29%
    Show more